Weather in Sand City

United States     36°37′50″N   121°50′24″W
temp.,
°C
wind,
m/s
gust,
m/s
humid.,
%
clouds,
%
prec.,
mm/h
press.,
hPa
HPBL,
m
18 may, tue
tue1823:00+10sw249615 0.0 1020115
02:00+9ssw249721 0.0 1020116
05:00+8ssw239724 0.0 102070
08:00+12ssw228222 0.0 1020343
11:00+17wsw43593 0.0 1020614
14:00+18wsw55611 0.0 1019514
17:00+16wsw68631 0.0 1017347
20:00+12wsw5877100 0.0 1017271
19 may, wed
wed1923:00+9wsw238979 0.0 101875
02:00+8wsw2494100 0.0 1018107
05:00+8w13937 0.0 101894
08:00+11w13710 0.0 1018443
11:00+15w55530 0.0 1017906
14:00+15w89550 0.0 1016583
17:00+15w911540 0.0 1015558
20:00+12w711640 0.0 1016541
20 may, thu
thu2023:00+10w58700 0.0 1017391
02:00+8wnw37760 0.0 1017279
05:00+6nw13860 0.0 1017105
08:00+10nw23650 0.0 1018345
11:00+15wsw45420 0.0 10181042
14:00+17w77370 0.0 10161387
17:00+16wnw911450 0.0 1015705
20:00+12wnw610650 0.0 1016515
21 may, fri
fri2123:00+8sw13890 0.0 1017105
02:00+7ssw23936 0.0 101689
05:00+7sw13944 0.0 101664
08:00+10sw12762 0.0 1017351
11:00+15wsw43530 0.0 1017819
14:00+15w67570 0.0 1017656
17:00+14wsw79600 0.0 1016529
20:00+11wsw6108014 0.0 1017619
22 may, sat
sat2223:00+10w578671 0.0 1017510
02:00+10sw248897 0.1 1017285
05:00+8ssw11967 0.1 101732
08:00+11ese1280100 0.0 1018283
11:00+16w53572 0.0 1018709
14:00+14w676895 0.0 1018668
17:00+14wsw557021 0.0 1017693
20:00+11sw358745 0.0 1018457